Temperature
2 3 3 3 3 3 3 5 5 6 6 6 5 4 3 2 2 2 2 2 2 2 3 3 3 4 4 4 5 5 5 5 6 6 6 6 6 6 6 5 5 5 5 5
1 3 2 2 3 3 3 4 5 5 5 4 3 2 2 2 1 1 1 1 1 2 2 2 3 3 3 4 4 4 4 5 5 5 5 5 5 5 5 5 5 5 5 4
3 2 2 2 2 2 3 3 4 4 4 3 3 2 2 1 1 0 -0 0 0 1 1 2 2 3 3 3 3 3 4 4 4 4 4 4 4 4 4 4 4 4 4 4
1 1 2 3 1 1 2 1 2 2 2 2 2 1 -0 -0 -0 -0 -0 -0 0 0 1 1 2 2 2 2 2 3 3 3 3 3 3 4 3 3 3 3 3 3 3 3
1 2 2 2 0 -1 0 1 0 1 1 0 -0 0 0 -1 -1 -1 -1 -1 -0 0 0 1 1 1 2 2 2 2 2 2 3 3 3 3 3 3 3 2 2 2 2 2
0 2 2 2 -1 -2 -1 1 -0 -1 -0 -1 -0 2 2 -1 -1 -1 -1 -1 -1 -0 -0 0 1 1 1 1 1 1 2 2 2 2 2 2 2 2 2 2 2 2 2 2
0 1 1 -0 -2 -2 1 1 -1 -2 -2 -2 -1 -0 -2 -2 -2 -2 -2 -1 -1 -1 -1 -0 -0 -0 0 0 0 1 1 1 1 1 1 1 1 1 1 1 1 1 1 1
-1 0 1 -2 -2 -1 -0 -2 -3 -3 -3 -3 -3 -3 -3 -3 -3 -3 -2 -2 -2 -1 -1 -1 -1 -1 -1 -1 -0 -0 -0 0 0 0 0 0 1 1 0 0 0 0 0 0
-1 -0 -1 -3 -3 -3 -3 -3 -3 -3 -4 -4 -4 -4 -4 -4 -3 -3 -3 -3 -2 -2 -2 -2 -2 -1 -1 -1 -1 -1 -1 -0 -0 -0 -0 -0 -0 -0 -0 -0 -0 -1 -1 -1
-3 -2 -3 -4 -4 -4 -4 -4 -4 -4 -4 -4 -4 -4 -4 -4 -4 -4 -4 -3 -3 -3 -3 -2 -2 -2 -2 -2 -2 -2 -1 -1 -1 -1 -1 -1 -1 -1 -1 -1 -1 -1 -1 -1
-3 -3 -3 -3 -4 -4 -4 -4 -4 -4 -4 -4 -4 -4 -4 -4 -4 -4 -4 -4 -4 -3 -3 -3 -3 -2 -2 -2 -2 -2 -2 -2 -2 -2 -2 -2 -2 -2 -2 -1 -1 -2 -2 -2
-2 -3 -3 -3 -4 -4 -4 -4 -4 -4 -4 -4 -4 -5 -5 -5 -5 -5 -4 -4 -4 -4 -4 -3 -3 -3 -3 -3 -3 -3 -3 -2 -2 -2 -2 -2 -2 -2 -2 -2 -2 -2 -2 -2
-4 -4 -4 -4 -4 -4 -5 -5 -5 -5 -5 -5 -5 -5 -5 -5 -5 -5 -5 -5 -4 -4 -4 -4 -4 -3 -3 -3 -3 -3 -3 -3 -3 -3 -3 -3 -3 -3 -2 -3 -3 -3 -2 -2
-5 -5 -5 -5 -5 -5 -5 -5 -5 -5 -5 -5 -5 -5 -5 -5 -5 -5 -5 -5 -5 -5 -4 -4 -4 -4 -4 -4 -4 -4 -4 -4 -4 -3 -3 -3 -3 -3 -3 -3 -3 -3 -3 -3
-5 -5 -5 -5 -5 -5 -5 -5 -5 -5 -5 -5 -5 -5 -5 -5 -5 -5 -5 -5 -5 -5 -5 -5 -4 -4 -4 -4 -4 -4 -4 -4 -4 -4 -4 -4 -4 -4 -4 -4 -4 -4 -4 -4
-5 -5 -5 -6 -6 -6 -6 -6 -6 -6 -6 -6 -6 -6 -6 -6 -6 -6 -6 -6 -5 -5 -5 -5 -5 -5 -5 -5 -5 -5 -4 -4 -4 -4 -4 -4 -4 -4 -4 -4 -4 -4 -4 -4
-6 -6 -6 -6 -6 -6 -6 -6 -6 -6 -6 -6 -6 -6 -6 -6 -6 -6 -6 -6 -6 -5 -5 -5 -5 -5 -5 -5 -5 -5 -5 -5 -5 -5 -5 -5 -5 -5 -5 -5 -5 -5 -5 -5
-5 -5 -5 -5 -6 -6 -6 -6 -6 -6 -6 -6 -6 -6 -6 -6 -6 -6 -6 -6 -6 -6 -6 -6 -6 -6 -6 -6 -5 -5 -5 -5 -5 -5 -5 -5 -5 -5 -5 -5 -5 -5 -5 -5
-5 -5 -5 -6 -6 -6 -6 -6 -6 -6 -6 -7 -7 -7 -7 -7 -7 -7 -7 -7 -6 -6 -6 -6 -6 -6 -6 -6 -6 -6 -6 -6 -6 -6 -6 -6 -6 -5 -6 -5 -5 -5 -5 -5
-5 -5 -6 -6 -6 -6 -6 -6 -6 -7 -7 -7 -7 -7 -7 -7 -7 -7 -7 -7 -7 -7 -7 -6 -6 -6 -6 -6 -6 -6 -6 -6 -6 -6 -6 -6 -6 -6 -6 -6 -6 -6 -6 -6
-5 -6 -6 -6 -6 -6 -6 -7 -7 -7 -7 -7 -7 -7 -7 -7 -7 -7 -7 -7 -7 -7 -7 -7 -7 -7 -7 -7 -6 -6 -6 -6 -6 -6 -6 -6 -6 -6 -6 -6 -6 -6 -6 -6
-6 -6 -6 -6 -6 -6 -7 -7 -7 -7 -7 -7 -7 -7 -7 -7 -7 -7 -7 -7 -7 -7 -7 -7 -7 -7 -7 -7 -7 -7 -7 -7 -7 -7 -7 -7 -7 -7 -7 -7 -7 -6 -6 -6
-6 -6 -6 -7 -7 -7 -7 -7 -7 -7 -7 -7 -7 -8 -8 -8 -8 -8 -8 -8 -8 -8 -7 -7 -7 -7 -7 -7 -7 -7 -7 -7 -7 -7 -7 -7 -7 -7 -7 -7 -7 -7 -7 -7
-6 -6 -7 -7 -7 -7 -7 -7 -7 -7 -8 -8 -8 -8 -8 -8 -8 -8 -8 -8 -8 -8 -8 -8 -8 -8 -8 -8 -8 -7 -7 -7 -7 -7 -7 -7 -7 -7 -7 -7 -7 -7 -7 -7
-6 -7 -7 -7 -7 -7 -7 -8 -8 -8 -8 -8 -8 -8 -8 -8 -8 -8 -8 -8 -8 -8 -8 -8 -8 -8 -8 -8 -8 -8 -8 -7 -7 -7 -7 -8 -8 -7 -7 -7 -7 -7 -7 -7
-7 -7 -7 -7 -7 -8 -8 -8 -8 -8 -8 -8 -8 -8 -8 -8 -8 -9 -8 -8 -8 -8 -8 -8 -8 -8 -8 -8 -8 -8 -8 -8 -8 -8 -8 -8 -8 -8 -8 -8 -7 -7 -7 -7
-7 -7 -7 -8 -8 -8 -8 -8 -8 -8 -8 -8 -8 -8 -8 -9 -9 -9 -9 -9 -9 -8 -8 -8 -8 -8 -8 -8 -8 -8 -8 -8 -8 -8 -8 -8 -8 -8 -8 -8 -8 -7 -7 -7
Wind_Speed
6 7 5 6 8 7 8 8 7 7 7 7 6 6 5 3 3 3 3 3 2 2 2 2 2 1 1 1 2 2 3 2 2 2 3 3 4 4 4 4 3 3 4 4
3 4 4 7 9 10 10 10 11 10 10 7 5 4 4 3 2 2 3 3 3 3 2 2 2 1 0 1 1 2 3 2 2 3 3 3 4 4 4 3 3 3 3 3
2 2 2 5 6 7 7 6 7 9 8 4 4 4 5 5 4 3 3 3 3 3 3 2 2 1 0 0 1 2 2 3 3 3 3 4 4 4 4 3 3 3 3 3
2 1 4 1 1 2 4 4 4 5 5 5 6 5 4 4 4 3 3 3 4 4 4 3 2 1 0 1 1 2 2 2 2 3 3 4 4 4 4 3 3 3 3 2
1 2 5 3 2 1 3 4 3 5 5 5 5 4 3 4 3 3 4 3 4 4 3 2 2 1 1 1 2 2 2 2 2 2 3 3 4 4 4 3 3 3 2 2
2 3 4 1 1 3 3 4 1 3 4 4 4 4 4 4 4 4 4 3 3 3 2 2 1 1 1 1 2 2 1 1 2 2 2 3 3 3 3 3 3 3 2 2
5 5 4 2 2 1 4 2 2 3 4 4 4 4 4 5 4 4 3 3 3 2 2 2 1 1 1 1 1 1 1 1 2 2 2 3 3 3 3 4 3 3 2 2
4 5 5 0 1 3 3 3 3 4 4 4 4 4 4 4 4 3 3 3 3 2 2 2 1 1 1 1 1 1 1 2 2 2 2 3 4 3 3 4 4 3 2 1
5 5 2 1 3 4 4 4 5 4 4 4 4 4 4 4 3 3 2 3 3 2 2 1 1 0 1 0 1 1 2 2 2 2 2 3 3 4 3 3 3 2 2 1
5 7 6 5 5 5 5 4 4 4 4 4 4 4 4 3 3 3 2 2 2 2 1 2 1 1 0 1 1 1 2 1 2 2 2 2 2 2 3 3 2 2 2 1
6 7 6 5 5 5 5 4 4 4 3 4 4 4 3 3 3 2 2 2 2 2 1 2 1 1 0 1 2 2 2 1 1 2 2 2 2 2 2 2 2 2 2 1
5 4 4 4 4 4 4 4 4 4 4 3 3 3 3 2 2 2 2 2 2 2 1 2 1 1 1 1 2 2 2 1 1 1 2 2 2 2 2 1 2 1 1 1
4 3 3 4 4 3 3 4 4 4 4 3 3 2 2 2 2 2 2 2 2 2 2 1 1 1 1 1 2 2 2 2 1 2 2 2 2 2 2 2 2 2 2 1
5 3 4 3 3 3 3 4 3 3 3 3 2 2 2 2 2 2 2 2 2 2 2 1 1 1 1 1 2 2 2 2 2 2 2 2 2 2 2 2 1 1 1 1
5 5 4 3 3 3 2 2 2 2 3 3 2 2 2 2 2 3 3 2 1 1 1 1 1 1 1 1 2 2 2 2 2 2 2 2 2 2 2 2 1 1 0 0
3 3 3 3 3 3 3 2 3 3 3 3 3 3 2 2 2 2 2 2 1 2 2 1 2 2 1 1 2 2 2 2 2 2 2 2 2 2 2 2 1 1 0 0
4 3 3 4 4 4 4 4 4 4 3 3 3 3 2 2 2 2 3 2 2 2 2 2 2 1 1 2 2 2 2 2 3 2 2 2 2 2 1 1 1 1 0 0
6 5 5 5 4 4 4 4 4 4 4 3 3 2 2 2 2 2 3 2 1 2 2 2 1 1 1 1 2 2 2 2 2 2 2 2 2 1 1 1 1 1 0 0
5 5 5 5 4 4 4 4 4 3 3 2 2 2 2 3 3 2 2 2 2 2 2 1 1 1 1 2 2 2 2 3 2 2 2 2 2 1 1 1 1 1 1 1
4 4 4 3 3 3 3 3 3 3 2 2 2 2 2 3 2 2 2 2 3 2 2 1 1 1 1 2 2 2 2 3 3 2 2 2 1 1 1 1 1 1 1 1
4 4 3 3 2 2 3 3 2 2 2 2 2 3 3 3 2 2 2 2 3 2 2 2 1 1 1 2 2 2 2 2 2 2 2 2 1 1 1 1 1 1 1 1
4 3 3 3 2 2 2 2 2 2 2 2 2 2 2 2 2 2 2 3 3 2 1 1 1 1 2 2 2 2 2 2 2 2 2 2 1 1 1 1 1 1 1 1
3 3 3 3 3 2 2 2 2 2 2 2 2 2 3 3 2 2 2 2 2 2 1 1 1 2 2 1 1 2 2 2 2 2 2 2 1 1 1 1 1 1 1 2
3 3 3 2 2 2 2 3 2 2 2 2 2 2 2 2 2 2 2 3 2 2 1 1 2 2 2 1 1 2 2 2 2 2 1 1 1 1 1 1 1 1 2 2
3 3 3 3 3 3 3 2 2 2 2 2 2 2 2 2 2 2 2 2 2 1 1 1 1 1 1 1 1 1 1 1 1 1 1 2 1 1 1 1 2 2 2 2
3 3 3 4 4 3 2 2 2 2 2 2 2 2 1 1 2 2 1 1 1 1 1 1 0 1 1 1 1 1 1 1 1 1 1 1 2 1 1 1 2 2 2 2
3 3 2 2 3 3 3 3 3 3 3 2 2 2 1 1 1 1 1 1 1 1 0 0 0 1 1 1 1 1 1 1 1 2 2 2 2 2 2 2 2 2 2 2
Wind_Direction
270 273 257 263 264 248 230 233 234 247 261 286 308 314 322 329 340 354 7 11 8 6 9 19 21 25 72 125 132 129 127 129 141 144 144 148 151 153 151 154 162 168 173 174
277 255 248 267 269 256 245 243 239 250 270 291 311 318 316 320 327 331 341 351 353 355 357 4 7 12 58 130 134 131 129 128 123 133 136 140 144 146 142 143 151 154 161 163
280 311 277 265 263 246 231 236 238 249 263 297 310 316 318 322 317 309 320 333 339 339 339 342 341 330 233 171 142 133 125 121 126 131 136 135 137 142 142 148 151 153 150 157
289 286 235 264 33 274 243 255 258 261 285 290 293 303 319 319 310 309 318 327 329 332 335 341 346 353 55 108 133 130 127 125 121 130 136 137 138 143 144 150 154 153 149 152
241 256 267 279 297 292 255 267 282 264 283 296 307 294 301 333 328 312 313 317 319 322 325 338 353 14 81 100 119 126 126 123 124 127 135 143 145 147 150 151 151 151 148 149
221 243 252 288 9 330 263 255 314 277 279 290 290 270 302 346 333 324 322 323 324 324 332 348 3 58 106 110 120 123 121 124 119 129 144 155 153 148 147 146 143 138 128 134
229 241 262 310 326 267 225 283 341 292 284 281 276 283 306 316 318 320 321 322 322 320 329 339 357 115 130 121 108 81 91 106 109 124 137 147 141 138 142 139 137 132 129 122
211 225 247 79 139 222 279 320 303 292 291 288 282 289 295 303 309 319 326 330 331 331 335 341 358 139 141 126 76 80 93 98 98 113 123 138 135 137 142 143 139 134 130 114
217 236 294 221 247 276 293 287 292 290 287 282 280 284 292 294 299 308 318 326 332 331 329 334 341 177 159 129 95 102 103 100 101 109 115 135 143 146 144 147 144 145 147 144
252 260 274 277 272 280 291 293 297 291 288 277 269 276 284 285 289 301 306 311 313 315 325 331 334 321 188 156 139 131 121 108 107 112 115 127 137 150 156 160 158 158 165 171
250 271 290 279 276 285 297 301 305 309 292 275 264 267 271 276 282 287 298 301 290 286 298 307 312 313 229 170 159 148 137 130 129 134 141 139 142 153 169 175 181 184 187 195
240 241 244 277 301 302 293 296 303 309 313 308 278 267 272 277 283 283 286 289 284 285 285 294 299 297 287 203 168 159 155 157 158 160 157 154 147 126 92 119 117 115 133 206
253 280 270 283 294 297 295 302 306 297 292 297 300 287 276 281 289 290 286 282 278 279 279 280 275 281 285 220 188 183 182 189 182 182 179 175 168 162 148 110 103 102 97 81
244 250 268 269 282 302 306 309 310 304 302 298 298 294 291 294 293 293 289 284 281 277 276 271 265 277 273 220 191 189 187 185 189 193 189 185 178 172 169 172 169 119 75 76
237 227 237 271 293 303 307 310 311 313 321 324 317 304 297 297 299 303 305 299 287 273 271 266 265 273 262 212 196 195 192 183 183 189 192 185 172 168 166 169 172 167 77 81
225 230 233 247 264 278 285 284 283 290 303 307 310 310 307 301 302 307 311 302 277 277 278 274 269 272 250 205 194 199 193 182 193 188 175 167 165 166 167 168 170 177 196 277
195 228 236 249 256 264 265 264 267 274 281 284 290 300 306 305 309 315 320 316 297 290 286 273 271 269 238 211 202 196 185 176 172 166 165 167 168 168 170 172 173 182 218 330
223 234 235 238 246 255 264 267 268 271 271 275 284 291 288 282 287 300 312 323 327 321 309 293 277 257 222 207 198 184 168 163 161 160 159 163 163 161 164 170 172 176 196 342
227 234 242 247 249 248 254 261 266 272 274 270 267 273 278 277 278 289 303 303 294 300 310 300 277 237 199 191 184 171 161 156 152 152 156 161 155 147 153 167 190 203 218 245
225 231 237 246 249 245 251 259 262 268 268 257 250 259 275 286 291 290 288 281 280 285 291 289 266 215 199 187 176 165 159 157 156 157 162 161 150 144 148 176 215 234 243 253
226 230 231 233 245 253 251 251 247 256 268 257 244 248 264 283 287 275 264 279 302 298 283 265 251 220 191 174 169 163 160 159 160 164 164 157 151 150 161 202 235 248 255 264
228 230 233 232 234 254 265 255 244 243 250 258 260 256 258 271 279 276 267 263 285 294 287 255 241 203 180 171 171 166 163 160 162 168 169 166 168 177 196 220 246 269 276 278
230 233 231 229 229 240 261 255 241 234 237 245 247 248 249 259 259 252 272 281 280 281 275 233 195 185 170 163 168 167 166 169 175 178 179 180 188 198 213 235 263 279 286 290
229 230 229 228 208 210 242 257 249 243 245 253 254 255 254 256 264 256 264 274 278 277 255 211 201 191 174 164 167 168 172 179 184 182 179 186 200 208 221 241 261 277 288 293
224 222 215 205 211 225 237 241 234 235 244 257 266 265 256 247 247 262 270 264 256 251 248 226 216 186 163 164 167 171 178 185 186 184 188 196 207 217 232 248 260 271 282 287
220 222 225 227 228 228 222 217 222 230 236 252 270 268 264 259 252 251 252 251 242 235 251 252 216 178 170 175 174 176 178 183 197 207 206 210 217 227 239 249 262 272 279 285
221 225 227 235 236 225 218 216 221 229 231 235 255 264 261 255 247 240 235 231 226 217 210 209 215 199 194 187 181 180 183 190 197 203 211 217 224 233 243 252 264 273 280 285
Height
1493 1490 1490 1490 1487 1486 1486 1481 1478 1472 1473 1475 1477 1478 1479 1478 1477 1476 1476 1476 1476 1476 1476 1476 1477 1478 1479 1480 1481 1482 1484 1486 1488 1490 1492 1494 1496 1498 1499 1501 1502 1504 1505 1506
1494 1490 1489 1488 1485 1484 1483 1481 1478 1476 1476 1478 1479 1479 1478 1478 1477 1476 1476 1475 1475 1475 1475 1475 1475 1476 1477 1478 1479 1480 1482 1483 1485 1487 1488 1490 1492 1494 1495 1497 1499 1500 1501 1503
1488 1490 1489 1484 1483 1482 1481 1480 1478 1475 1476 1477 1478 1478 1478 1478 1477 1476 1476 1475 1474 1474 1474 1474 1474 1475 1475 1476 1477 1478 1479 1481 1482 1484 1485 1487 1489 1491 1492 1494 1496 1497 1498 1499
1492 1492 1487 1482 1486 1485 1483 1482 1481 1479 1478 1479 1479 1479 1478 1477 1477 1476 1475 1474 1473 1473 1472 1472 1473 1473 1474 1474 1475 1476 1477 1478 1480 1482 1483 1485 1486 1488 1490 1492 1493 1494 1495 1496
1494 1489 1481 1483 1486 1487 1485 1481 1482 1481 1480 1480 1479 1477 1476 1476 1476 1475 1475 1474 1473 1472 1472 1472 1472 1472 1472 1472 1473 1474 1475 1477 1478 1480 1481 1482 1484 1486 1487 1489 1490 1491 1492 1493
1495 1488 1480 1480 1488 1488 1487 1480 1481 1481 1480 1479 1478 1475 1475 1475 1474 1474 1473 1472 1472 1471 1471 1471 1470 1471 1471 1471 1472 1472 1474 1475 1476 1478 1479 1481 1482 1484 1485 1487 1488 1489 1490 1490
1494 1489 1482 1486 1488 1487 1483 1477 1481 1480 1479 1478 1477 1476 1476 1474 1473 1472 1472 1471 1471 1470 1470 1469 1469 1469 1470 1470 1470 1471 1473 1474 1475 1476 1477 1479 1480 1482 1483 1484 1485 1486 1487 1488
1494 1488 1484 1487 1487 1485 1481 1481 1480 1478 1477 1476 1475 1474 1473 1472 1471 1471 1470 1469 1469 1468 1468 1469 1468 1468 1468 1469 1469 1470 1472 1473 1473 1474 1476 1477 1478 1479 1481 1482 1483 1484 1485 1485
1491 1487 1485 1485 1484 1483 1482 1479 1477 1476 1475 1474 1473 1472 1471 1470 1470 1469 1468 1468 1468 1467 1467 1467 1467 1467 1467 1467 1468 1469 1471 1471 1472 1473 1474 1475 1476 1477 1479 1480 1481 1482 1482 1483
1491 1484 1484 1483 1482 1480 1478 1476 1475 1474 1473 1472 1471 1470 1469 1469 1468 1467 1467 1466 1466 1466 1465 1465 1466 1466 1466 1466 1467 1468 1469 1470 1470 1471 1472 1473 1475 1476 1477 1478 1479 1479 1480 1480
1487 1483 1482 1480 1479 1478 1476 1475 1473 1472 1471 1470 1469 1468 1468 1467 1466 1466 1465 1465 1465 1464 1464 1464 1464 1464 1465 1465 1466 1467 1467 1468 1469 1470 1471 1472 1473 1474 1475 1476 1477 1477 1478 1478
1480 1480 1480 1478 1477 1476 1474 1473 1471 1470 1468 1468 1467 1466 1465 1465 1464 1464 1463 1463 1463 1462 1462 1462 1462 1463 1463 1464 1465 1465 1465 1466 1467 1468 1469 1470 1471 1472 1473 1474 1474 1475 1476 1476
1479 1477 1477 1476 1475 1474 1472 1471 1470 1468 1467 1466 1466 1465 1464 1463 1463 1462 1462 1462 1461 1461 1460 1461 1461 1461 1461 1462 1463 1463 1464 1464 1465 1466 1467 1468 1469 1469 1470 1472 1472 1473 1473 1474
1476 1476 1474 1473 1473 1471 1470 1469 1468 1467 1466 1465 1464 1463 1463 1462 1461 1461 1460 1460 1459 1459 1459 1459 1459 1459 1459 1460 1460 1461 1462 1462 1463 1464 1465 1466 1467 1468 1468 1469 1470 1470 1471 1471
1472 1472 1472 1471 1470 1469 1468 1467 1466 1465 1464 1464 1463 1462 1461 1460 1459 1459 1459 1458 1457 1457 1457 1457 1457 1457 1457 1458 1458 1459 1460 1460 1462 1463 1463 1464 1465 1466 1467 1467 1468 1468 1469 1469
1469 1469 1469 1468 1467 1467 1466 1465 1465 1464 1463 1462 1461 1460 1459 1458 1458 1457 1457 1456 1456 1455 1455 1455 1455 1455 1455 1455 1456 1457 1458 1459 1460 1461 1461 1462 1463 1464 1465 1466 1466 1466 1467 1467
1466 1466 1465 1465 1465 1464 1464 1463 1463 1462 1461 1461 1460 1459 1458 1457 1456 1455 1455 1455 1454 1453 1453 1453 1453 1453 1453 1454 1454 1455 1455 1456 1458 1459 1460 1460 1461 1462 1463 1464 1464 1465 1465 1465
1463 1463 1463 1463 1462 1462 1461 1461 1461 1460 1459 1459 1458 1457 1456 1455 1454 1454 1453 1453 1452 1452 1451 1451 1451 1451 1452 1452 1453 1453 1454 1455 1456 1457 1458 1459 1460 1461 1461 1462 1463 1463 1463 1463
1460 1461 1461 1460 1460 1460 1459 1459 1459 1458 1457 1456 1456 1455 1455 1454 1453 1453 1452 1451 1451 1450 1450 1450 1450 1450 1450 1451 1451 1452 1453 1454 1455 1455 1456 1457 1458 1459 1460 1460 1461 1461 1461 1462
1458 1458 1458 1458 1457 1457 1457 1457 1456 1455 1455 1454 1454 1453 1453 1452 1452 1451 1450 1450 1449 1449 1449 1449 1449 1449 1449 1449 1450 1451 1452 1452 1453 1454 1455 1456 1456 1457 1458 1459 1459 1460 1460 1460
1455 1455 1455 1455 1455 1455 1455 1454 1454 1453 1453 1452 1452 1451 1451 1450 1450 1449 1448 1448 1448 1448 1447 1447 1447 1448 1448 1448 1449 1450 1451 1451 1452 1453 1454 1455 1455 1456 1457 1458 1458 1458 1458 1458
1452 1453 1453 1453 1452 1452 1452 1452 1452 1451 1451 1450 1450 1449 1449 1448 1448 1447 1447 1447 1446 1446 1446 1446 1446 1447 1447 1448 1448 1449 1450 1451 1451 1452 1453 1454 1454 1455 1456 1456 1456 1456 1456 1456
1450 1450 1450 1450 1450 1449 1449 1449 1449 1449 1448 1448 1448 1447 1447 1446 1446 1445 1445 1445 1445 1445 1445 1445 1445 1446 1446 1447 1447 1448 1449 1449 1450 1451 1452 1452 1453 1454 1454 1454 1454 1454 1455 1454
1447 1447 1447 1447 1447 1447 1447 1447 1447 1447 1446 1446 1446 1445 1445 1444 1444 1444 1443 1443 1443 1443 1443 1444 1444 1445 1445 1446 1446 1447 1448 1448 1449 1450 1450 1451 1452 1452 1452 1452 1453 1453 1453 1453
1444 1444 1444 1444 1444 1444 1444 1444 1444 1444 1444 1443 1443 1443 1442 1442 1442 1441 1442 1442 1442 1442 1442 1442 1443 1443 1444 1444 1445 1446 1446 1447 1448 1448 1449 1449 1450 1450 1451 1451 1451 1451 1451 1451
1441 1441 1441 1441 1441 1441 1441 1441 1441 1441 1441 1440 1440 1440 1440 1440 1440 1440 1440 1440 1440 1440 1441 1441 1442 1442 1443 1443 1444 1444 1445 1445 1446 1447 1447 1448 1448 1448 1449 1449 1449 1449 1449 1448
1437 1437 1437 1437 1438 1438 1438 1438 1438 1438 1438 1438 1437 1438 1437 1437 1437 1438 1438 1438 1438 1439 1440 1440 1441 1441 1442 1442 1442 1443 1443 1444 1445 1445 1445 1446 1446 1447 1447 1447 1447 1447 1447 1447